[[{"header":{"parameterUnit":"m.s-1","parameterCategory":2,"la1":30.2991,"la2":30.254,"lo1":-89.0895,"lo2":-89.0444,"dy":0.0017,"dx":0.0017,"nx":28,"ny":28,"refTime":"2023-10-30T21:00:00:Z","depth":"0","parameterNumber":2,"parameterNumberName":"U-component_of_CURRENTS"},"data":[0,0,0,0,0,0,0,0,0,0,0,0,0,0,0,0,0,0,0,0,0,0,0,0,0,0,0,0,0,0,0,0,0,0,0,0,0,0,0,0,0,0,0,0,0,0,0,0,0,0,0,0,0,0,0,0,0,0,0.2306,0.2306,0,0.2324,0.2324,0.2324,0.2333,0.2334,0.2334,0.2334,0.2311,0.2311,0.231,0,0,0,0,0,0,0,0,0,0,0,0,0,0.2355,0.2353,0.2306,0.2306,0.2307,0.2324,0.2324,0.2324,0.2333,0.2334,0.2334,0.2334,0.2312,0.2311,0.231,0,0,0,0,0,0,0,0,0,0,0,0,0,0.2347,0.2353,0.2306,0.2315,0.2316,0.2324,0.2324,0.2324,0.2333,0.2334,0.2334,0.2334,0.2312,0.2311,0.231,0.2295,0,0,0.2306,0.2305,0,0,0,0,0,0,0,0,0.2347,0.2345,0.2313,0.2314,0.2316,0.2329,0.2333,0.2313,0.2333,0.2324,0.2334,0.2334,0.2315,0.2313,0.2313,0.2294,0.2293,0.2306,0.2305,0.2305,0.2304,0,0,0,0,0,0,0,0.2348,0.2344,0.231,0.2314,0.2315,0.2345,0.2343,0.233,0.2315,0.2325,0.2326,0.2332,0.2315,0.2314,0.2313,0.2293,0.2306,0.2305,0.2304,0.2304,0.2322,0.2323,0,0,0,0,0,0,0.2345,0.2344,0.231,0.2311,0.2335,0.2343,0.2341,0.2322,0.2316,0.2316,0.2332,0.2333,0.2316,0.2314,0.2312,0.2344,0.2305,0.2303,0.2303,0.232,0.2322,0.2323,0,0,0,0,0,0,0.2346,0.2341,0.2309,0.2332,0.233,0.2342,0.2321,0.2323,0.2329,0.2322,0.2321,0.2337,0.2316,0.2314,0.2324,0.2341,0.2303,0.2302,0.2319,0.2321,0.2322,0.2376,0,0,0,0,0,0,0.2347,0.234,0.2332,0.2331,0.2329,0.2325,0.2321,0.2323,0.2333,0.2334,0.2326,0.2324,0.2317,0.2326,0.2323,0.2339,0.2301,0.2317,0.232,0.2322,0.2373,0.238,0.2386,0,0,0,0,0,0.2348,0.2338,0.233,0.2327,0.2313,0.2325,0.2327,0.2336,0.2333,0.2341,0.2345,0.2325,0.2338,0.2326,0.2322,0.2338,0.2316,0.2319,0.2322,0.237,0.2379,0.2386,0,0,0,0,0,0,0.2339,0.2338,0.233,0.2314,0.2323,0.2328,0.2335,0.2339,0.2347,0.2345,0.2337,0.2336,0.2353,0.2338,0.2325,0.2352,0.2325,0.2327,0.2363,0.2371,0.2377,0.2382,0.23,0,0,0,0,0,0.2335,0.2329,0.2333,0.2317,0.2324,0.2328,0.2335,0.2339,0.2345,0.2349,0.2349,0.2349,0.2359,0.236,0.236,0.2368,0.2372,0.2378,0.2384,0.239,0.2393,0.2423,0.2432,0.2332,0.2332,0.2332,0,0,0.2319,0.2322,0.2314,0.2317,0.232,0.2343,0.2332,0.2341,0.2362,0.2343,0.2368,0.2368,0.2367,0.2387,0.2392,0.2377,0.2423,0.2393,0.2398,0.2398,0.2426,0.2436,0.2445,0.2334,0.2334,0.2333,0,0,0.2321,0.2294,0.2312,0.2323,0.2341,0.2348,0.2353,0.2365,0.2373,0.2395,0.2394,0.2409,0.2414,0.2425,0.243,0.2468,0.2456,0.2466,0.2499,0.2528,0.2537,0.2544,0.2572,0.2581,0.2468,0.2468,0.2468,0,0.2331,0.2321,0.2318,0.2348,0.2359,0.2354,0.2381,0.239,0.2406,0.2418,0.2411,0.2445,0.2436,0.2473,0.2489,0.2481,0.2496,0.247,0.2537,0.2544,0.2551,0.2577,0.2587,0.2471,0.2471,0.247,0.247,0,0.2335,0.2348,0.2356,0.239,0.2405,0.2416,0.2434,0.2451,0.2456,0.2467,0.2501,0.2502,0.2525,0.2526,0.2518,0.2563,0.2559,0.2542,0.2517,0.2564,0.2589,0.2598,0.2475,0.2474,0.2473,0.2473,0,0,0.2333,0.2364,0.2368,0.2394,0.2424,0.2436,0.2472,0.2505,0.2533,0.2545,0.2585,0.2601,0.2598,0.2604,0.2598,0.2618,0.2676,0.2602,0.2602,0.2629,0.2749,0.2765,0.2776,0.2675,0.2677,0.2678,0.2751,0,0.2355,0.2406,0.2414,0.2461,0.2492,0.2501,0.2537,0.2562,0.2584,0.262,0.2623,0.2655,0.2629,0.2646,0.2664,0.2673,0.2702,0.2658,0.27,0.2701,0.2709,0.2788,0.2771,0.2836,0.276,0.2761,0.2762,0,0.2372,0.2403,0.2453,0.2505,0.2517,0.2545,0.2593,0.2623,0.2669,0.2687,0.2719,0.2724,0.276,0.2727,0.2776,0.2752,0.2758,0.276,0.2763,0.2764,0.2734,0.2775,0.2856,0.283,0.2776,0.2775,0.2774,0,0.2375,0.2437,0.2472,0.2484,0.2541,0.2567,0.2593,0.2644,0.2671,0.2733,0.2764,0.2802,0.2827,0.2843,0.285,0.2821,0.2903,0.2861,0.2884,0.2885,0.2871,0.2868,0.2929,0.2904,0.2904,0.2904,0.2903,0,0.2399,0.243,0.2474,0.2492,0.2531,0.2572,0.262,0.2658,0.2714,0.275,0.2795,0.2837,0.2858,0.2901,0.2892,0.2932,0.2943,0.2913,0.2915,0.289,0.2888,0.2863,0.2819,0.2906,0.2906,0.2905,0.2905,0,0.2399,0.2433,0.2478,0.2527,0.254,0.2567,0.2619,0.2647,0.2719,0.2773,0.2795,0.2875,0.2943,0.2973,0.3012,0.2996,0.2976,0.303,0.3002,0.3,0.298,0.2939,0.2909,0.2812,0.3067,0.3068,0.3069,0,0.2392,0.242,0.2478,0.2489,0.2509,0.2548,0.2566,0.2637,0.2669,0.2789,0.2808,0.2914,0.297,0.3062,0.3087,0.3123,0.3021,0.3103,0.3038,0.3005,0.2961,0.2857,0.2767,0.3043,0.3044,0.3044,0.3045,0,0.2365,0.2396,0.2422,0.2449,0.2472,0.2498,0.2536,0.2566,0.2651,0.2713,0.2799,0.2865,0.3008,0.3056,0.3135,0.3142,0.3014,0.3113,0.3088,0.2968,0.2848,0.2746,0.2964,0.3049,0.3048,0.3048,0.3048,0.3048,0.2321,0.2328,0.2358,0.2382,0.2406,0.242,0.2413,0.247,0.2519,0.2589,0.2728,0.2818,0.2995,0.3119,0.3111,0.3146,0.3048,0.309,0.3051,0.2955,0.2837,0.3071,0.3148,0.3148,0.3148,0.3148,0.3148,0,0.2228,0.2248,0.2271,0.2287,0.2276,0.2322,0.2352,0.2333,0.235,0.2494,0.2575,0.2803,0.2923,0.3044,0.3148,0.3082,0.2966,0.3043,0.2894,0.2806,0.3052,0.303,0.3073,0.3073,0.3073,0.3074,0.3074,0.3074,0.2173,0.2163,0.2184,0.2141,0.2146,0.21,0.2098,0.2103,0.2179,0.2288,0.242,0.2569,0.2845,0.3134,0.3148,0.3092,0.2843,0.2835,0.2733,0.2942,0.2942,0.2943,0.2915,0.2934,0.2933,0.2434,0.2431,0.2428]},{"header":{"parameterUnit":"m.s-1","parameterCategory":2,"la1":30.2991,"la2":30.254,"lo1":-89.0895,"lo2":-89.0444,"dy":0.0017,"dx":0.0017,"nx":28,"ny":28,"refTime":"2023-10-30T21:00:00:Z","depth":"0","parameterNumber":3,"parameterNumberName":"V-component_of_CURRENTS"},"data":[0,0,0,0,0,0,0,0,0,0,0,0,0,0,0,0,0,0,0,0,0,0,0,0,0,0,0,0,0,0,0,0,0,0,0,0,0,0,0,0,0,0,0,0,0,0,0,0,0,0,0,0,0,0,0,0,0,0,-0.0415,-0.0417,0,-0.0538,-0.0539,-0.054,-0.0628,-0.0629,-0.063,-0.0631,-0.0696,-0.0696,-0.0697,0,0,0,0,0,0,0,0,0,0,0,0,0,-0.0438,-0.0436,-0.0415,-0.0417,-0.0419,-0.0537,-0.0539,-0.054,-0.0627,-0.0629,-0.063,-0.0631,-0.0695,-0.0696,-0.0697,0,0,0,0,0,0,0,0,0,0,0,0,0,-0.0477,-0.0435,-0.0415,-0.0479,-0.0486,-0.0537,-0.0539,-0.054,-0.0627,-0.0629,-0.063,-0.0632,-0.0695,-0.0696,-0.0697,-0.0674,0,0,-0.0701,-0.0702,0,0,0,0,0,0,0,0,-0.0475,-0.0476,-0.0468,-0.0475,-0.0483,-0.0572,-0.0571,-0.0583,-0.0627,-0.057,-0.0631,-0.0632,-0.065,-0.0655,-0.0671,-0.0677,-0.068,-0.0701,-0.0702,-0.0702,-0.0703,0,0,0,0,0,0,0,-0.0471,-0.0472,-0.046,-0.047,-0.0479,-0.0565,-0.057,-0.0575,-0.0596,-0.0575,-0.0583,-0.0601,-0.0654,-0.0669,-0.0673,-0.068,-0.0701,-0.0702,-0.0703,-0.0703,-0.0718,-0.0718,0,0,0,0,0,0,-0.0451,-0.0468,-0.0456,-0.0464,-0.0486,-0.0562,-0.0568,-0.0539,-0.0598,-0.061,-0.06,-0.0605,-0.0667,-0.0671,-0.0675,-0.0688,-0.0702,-0.0703,-0.0704,-0.0718,-0.0718,-0.0718,0,0,0,0,0,0,-0.045,-0.0447,-0.0451,-0.0475,-0.0482,-0.0559,-0.0527,-0.0541,-0.0562,-0.0618,-0.0628,-0.0608,-0.0668,-0.0674,-0.0697,-0.069,-0.0704,-0.0705,-0.0719,-0.0718,-0.0718,-0.069,0,0,0,0,0,0,-0.0449,-0.0444,-0.0428,-0.0471,-0.048,-0.0482,-0.0526,-0.0542,-0.0573,-0.0581,-0.0627,-0.0636,-0.067,-0.0695,-0.0698,-0.0692,-0.0706,-0.0719,-0.0719,-0.0718,-0.0691,-0.0689,-0.0686,0,0,0,0,0,-0.0449,-0.0435,-0.0424,-0.0425,-0.0448,-0.0482,-0.0493,-0.0554,-0.0571,-0.0578,-0.0619,-0.0634,-0.0694,-0.0696,-0.0699,-0.0694,-0.0719,-0.0719,-0.0718,-0.0692,-0.0689,-0.0687,0,0,0,0,0,0,-0.0429,-0.0443,-0.0434,-0.0418,-0.0441,-0.0498,-0.0516,-0.0544,-0.058,-0.058,-0.0631,-0.0642,-0.0662,-0.0675,-0.0676,-0.0696,-0.0707,-0.0707,-0.0687,-0.0684,-0.0681,-0.066,-0.0707,0,0,0,0,0,-0.041,-0.04,-0.0421,-0.0403,-0.0408,-0.045,-0.0474,-0.0501,-0.0539,-0.0557,-0.0596,-0.0628,-0.0658,-0.067,-0.0696,-0.0697,-0.0703,-0.0695,-0.0693,-0.0691,-0.0675,-0.068,-0.0676,-0.0715,-0.0715,-0.0716,0,0,-0.0388,-0.0402,-0.039,-0.04,-0.0415,-0.043,-0.0467,-0.0485,-0.0504,-0.0553,-0.0587,-0.0619,-0.0658,-0.0678,-0.0686,-0.0689,-0.0684,-0.069,-0.0688,-0.0673,-0.0679,-0.0675,-0.0671,-0.0715,-0.0715,-0.0715,0,0,-0.0375,-0.0348,-0.0349,-0.0361,-0.0387,-0.0412,-0.041,-0.0451,-0.0474,-0.0503,-0.0548,-0.0574,-0.0619,-0.0649,-0.067,-0.0659,-0.0674,-0.0666,-0.0633,-0.0638,-0.0635,-0.0632,-0.0641,-0.0639,-0.0662,-0.0662,-0.0661,0,-0.0377,-0.0343,-0.0356,-0.0367,-0.0376,-0.0397,-0.0398,-0.0423,-0.0473,-0.0479,-0.0509,-0.057,-0.0606,-0.0627,-0.0638,-0.0653,-0.0659,-0.0644,-0.0634,-0.0631,-0.0629,-0.0639,-0.0638,-0.066,-0.066,-0.066,-0.0661,0,-0.0339,-0.0339,-0.0337,-0.0347,-0.036,-0.0356,-0.0383,-0.0392,-0.0417,-0.0446,-0.0469,-0.0522,-0.0554,-0.0575,-0.0611,-0.0607,-0.0619,-0.0634,-0.064,-0.0623,-0.0636,-0.0634,-0.0658,-0.0659,-0.0659,-0.0659,0,0,-0.0314,-0.0318,-0.032,-0.0316,-0.034,-0.034,-0.0354,-0.0368,-0.0358,-0.041,-0.0408,-0.0476,-0.0488,-0.051,-0.0547,-0.056,-0.0563,-0.0586,-0.0587,-0.0593,-0.0575,-0.0607,-0.0609,-0.0576,-0.0576,-0.0575,-0.0594,0,-0.0296,-0.0297,-0.0305,-0.0302,-0.0301,-0.0313,-0.0318,-0.0329,-0.0348,-0.035,-0.0392,-0.0407,-0.0468,-0.0471,-0.0496,-0.0542,-0.0557,-0.0557,-0.0593,-0.0593,-0.0622,-0.0607,-0.0642,-0.0663,-0.0593,-0.0592,-0.0592,0,-0.0273,-0.0275,-0.0261,-0.0266,-0.0259,-0.0256,-0.0233,-0.0241,-0.0251,-0.0261,-0.028,-0.0314,-0.0344,-0.0391,-0.0457,-0.0454,-0.0506,-0.0548,-0.055,-0.0584,-0.0623,-0.0668,-0.0664,-0.0873,-0.059,-0.0591,-0.0591,0,-0.0246,-0.0257,-0.0235,-0.0231,-0.0232,-0.0214,-0.0207,-0.0208,-0.0184,-0.0192,-0.0171,-0.0225,-0.0231,-0.0306,-0.0408,-0.0426,-0.0475,-0.051,-0.0588,-0.0591,-0.0628,-0.0636,-0.0825,-0.0544,-0.0544,-0.0544,-0.0543,0,-0.0236,-0.0224,-0.0211,-0.0193,-0.0143,-0.0163,-0.0106,-0.0108,-0.0085,-0.0035,-0.0108,-0.0079,-0.0207,-0.026,-0.0366,-0.047,-0.0442,-0.0573,-0.0594,-0.0622,-0.0628,-0.0817,-0.0913,-0.0544,-0.0544,-0.0544,-0.0544,0,-0.0213,-0.0214,-0.0184,-0.0152,-0.0134,-0.009,-0.0028,0.0016,0.002,0.0087,0.0092,0.0043,-0.003,-0.0168,-0.0286,-0.0402,-0.0629,-0.0551,-0.0581,-0.0605,-0.0884,-0.0975,-0.1141,-0.1257,-0.064,-0.0641,-0.0642,0,-0.0191,-0.0177,-0.0126,-0.0086,-0.0063,-0.0,0.0051,0.0072,0.0126,0.017,0.0214,0.0158,0.0133,-0.007,-0.0288,-0.048,-0.0656,-0.0641,-0.0687,-0.0901,-0.1018,-0.1086,-0.1177,-0.073,-0.0731,-0.0732,-0.0733,0,-0.0135,-0.012,-0.0078,-0.0002,0.0059,0.0128,0.0202,0.0263,0.0302,0.0348,0.0398,0.038,0.0179,-0.0035,-0.0313,-0.0465,-0.0817,-0.067,-0.0884,-0.1094,-0.1186,-0.1307,-0.0723,-0.0743,-0.0742,-0.0741,-0.0741,-0.074,-0.0067,-0.0028,0.0023,0.0096,0.0163,0.0249,0.0306,0.0388,0.0476,0.0536,0.0528,0.0489,0.0178,-0.0212,-0.0439,-0.0919,-0.0896,-0.1071,-0.1159,-0.1204,-0.134,-0.0781,-0.0831,-0.083,-0.083,-0.083,-0.0829,0,0.0012,0.0046,0.0119,0.0197,0.0267,0.0287,0.0399,0.0444,0.0542,0.0588,0.0608,0.0392,0.0007,-0.0406,-0.0993,-0.134,-0.1485,-0.1549,-0.1676,-0.1743,-0.1241,-0.1272,-0.143,-0.143,-0.143,-0.143,-0.143,-0.1429,0.0058,0.0126,0.0147,0.0265,0.0318,0.0391,0.0443,0.0513,0.0548,0.0543,0.0472,0.0402,-0.0014,-0.0917,-0.1652,-0.1815,-0.2129,-0.2158,-0.2301,-0.1989,-0.1952,-0.1917,-0.1973,-0.2275,-0.2276,-0.279,-0.2795,-0.2799]}],[{"header":{"parameterUnit":"m.s-1","parameterCategory":2,"la1":30.2991,"la2":30.254,"lo1":-89.0895,"lo2":-89.0444,"dy":0.0017,"dx":0.0017,"nx":28,"ny":28,"refTime":"2023-10-30T21:00:00:Z","depth":"2","parameterNumber":2,"parameterNumberName":"U-component_of_CURRENTS"},"data":[0,0,0,0,0,0,0,0,0,0,0,0,0,0,0,0,0,0,0,0,0,0,0,0,0,0,0,0,0,0,0,0,0,0,0,0,0,0,0,0,0,0,0,0,0,0,0,0,0,0,0,0,0,0,0,0,0,0,0.2297,0.2297,0,0.2316,0.2316,0.2316,0.2332,0.2332,0.2332,0.2333,0.2315,0.2314,0.2313,0,0,0,0,0,0,0,0,0,0,0,0,0,0.2351,0.235,0.2297,0.2297,0.2297,0.2316,0.2316,0.2316,0.2332,0.2332,0.2332,0.2333,0.2315,0.2314,0.2313,0,0,0,0,0,0,0,0,0,0,0,0,0,0.2343,0.2349,0.2297,0.2309,0.231,0.2316,0.2316,0.2316,0.2332,0.2332,0.2333,0.2333,0.2315,0.2314,0.2313,0.2297,0,0,0.231,0.2309,0,0,0,0,0,0,0,0,0.2343,0.2341,0.2306,0.2308,0.2309,0.2323,0.2329,0.2308,0.2331,0.2322,0.2333,0.2333,0.2315,0.2314,0.2315,0.2296,0.2295,0.231,0.2309,0.2308,0.2308,0,0,0,0,0,0,0,0.2344,0.234,0.2303,0.2307,0.2309,0.234,0.2338,0.2326,0.2313,0.2322,0.2324,0.2329,0.2315,0.2316,0.2314,0.2295,0.231,0.2309,0.2308,0.2308,0.2327,0.2328,0,0,0,0,0,0,0.234,0.234,0.2302,0.2303,0.233,0.2339,0.2337,0.2317,0.2314,0.2315,0.2328,0.233,0.2318,0.2316,0.2314,0.2348,0.2308,0.2307,0.2307,0.2326,0.2327,0.2329,0,0,0,0,0,0,0.234,0.2335,0.2301,0.2326,0.2324,0.2337,0.2315,0.2317,0.2326,0.232,0.232,0.2336,0.2318,0.2315,0.2328,0.2346,0.2307,0.2306,0.2324,0.2326,0.2328,0.2382,0,0,0,0,0,0,0.2341,0.2334,0.2328,0.2324,0.2322,0.2317,0.2315,0.2317,0.2329,0.233,0.2326,0.2324,0.2318,0.233,0.2327,0.2343,0.2305,0.2323,0.2325,0.2327,0.2379,0.2386,0.2392,0,0,0,0,0,0.2343,0.2334,0.2326,0.2323,0.2308,0.2318,0.232,0.2331,0.2329,0.2339,0.2345,0.2325,0.2343,0.2331,0.2327,0.2343,0.2322,0.2325,0.2327,0.2376,0.2385,0.2392,0,0,0,0,0,0,0.2336,0.2334,0.2326,0.231,0.2319,0.2322,0.2329,0.2334,0.2345,0.2343,0.2337,0.2337,0.2356,0.2342,0.2329,0.2357,0.2329,0.2331,0.2368,0.2376,0.2382,0.2386,0.2304,0,0,0,0,0,0.2333,0.233,0.2331,0.2314,0.232,0.2323,0.233,0.2335,0.2342,0.2347,0.2349,0.2351,0.2362,0.2364,0.2366,0.2374,0.2377,0.2384,0.239,0.2396,0.2398,0.2427,0.2437,0.2338,0.2338,0.2337,0,0,0.2317,0.2321,0.2313,0.2315,0.2316,0.2339,0.2328,0.2336,0.2358,0.2341,0.2369,0.237,0.237,0.2391,0.2397,0.2383,0.2428,0.2399,0.2404,0.2403,0.2431,0.2441,0.2449,0.2339,0.2339,0.2339,0,0,0.2319,0.2293,0.2312,0.2322,0.2339,0.2345,0.2351,0.2361,0.2371,0.2395,0.2395,0.2411,0.2418,0.243,0.2435,0.2474,0.2461,0.2472,0.2505,0.2534,0.2542,0.2549,0.2576,0.2585,0.2474,0.2474,0.2474,0,0.2331,0.2321,0.2318,0.2348,0.2359,0.2352,0.2379,0.2388,0.2406,0.2418,0.2412,0.2448,0.244,0.2478,0.2495,0.2487,0.2502,0.2476,0.2542,0.2549,0.2556,0.2581,0.2591,0.2477,0.2477,0.2477,0.2476,0,0.2335,0.235,0.2357,0.2392,0.2407,0.2417,0.2434,0.2451,0.2457,0.2469,0.2504,0.2507,0.253,0.2531,0.2524,0.2569,0.2565,0.2548,0.2523,0.2569,0.2593,0.2602,0.2482,0.248,0.248,0.2479,0,0,0.2334,0.2366,0.237,0.2397,0.2426,0.2437,0.2475,0.2507,0.2536,0.255,0.259,0.2607,0.2604,0.261,0.2604,0.2624,0.2681,0.2607,0.2607,0.2633,0.2751,0.2766,0.2777,0.2679,0.2681,0.2682,0.2753,0,0.2356,0.2409,0.2417,0.2466,0.2496,0.2504,0.2541,0.2567,0.2589,0.2625,0.2628,0.2661,0.2635,0.2651,0.2669,0.2677,0.2705,0.2663,0.2702,0.2704,0.271,0.2788,0.2476,0.2515,0.2762,0.2763,0.2764,0,0.2374,0.2406,0.2457,0.2511,0.2522,0.2551,0.2597,0.2629,0.2674,0.2692,0.2724,0.2729,0.2764,0.2732,0.2779,0.2756,0.2761,0.2763,0.2765,0.2764,0.2735,0.2507,0.2522,0.2779,0.2778,0.2777,0.2776,0,0.2378,0.244,0.2476,0.2489,0.2547,0.2572,0.2599,0.265,0.2677,0.2738,0.2769,0.2805,0.283,0.2846,0.2852,0.2823,0.2903,0.2861,0.2882,0.2883,0.2617,0.2593,0.2903,0.2903,0.2903,0.2903,0.2902,0,0.2403,0.2434,0.2479,0.2497,0.2536,0.2578,0.2625,0.2664,0.2719,0.2754,0.2799,0.2839,0.286,0.2902,0.2893,0.2931,0.2942,0.2911,0.2913,0.2631,0.2608,0.2827,0.2817,0.2905,0.2905,0.2904,0.2904,0,0.2403,0.2437,0.2484,0.2532,0.2546,0.2572,0.2624,0.2652,0.2723,0.2776,0.2798,0.2877,0.2943,0.2972,0.301,0.2993,0.3018,0.3025,0.2703,0.2668,0.2964,0.2956,0.3057,0.3059,0.306,0.3061,0.3061,0,0.2396,0.2424,0.2482,0.2494,0.2514,0.2553,0.257,0.2641,0.2672,0.2791,0.281,0.2914,0.2954,0.3044,0.299,0.3001,0.3078,0.2788,0.2684,0.2994,0.2985,0.2975,0.2966,0.2341,0.2336,0.2332,0.2328,0,0.2369,0.24,0.2426,0.2453,0.2476,0.2501,0.2539,0.2569,0.2654,0.2701,0.2785,0.2836,0.2905,0.2777,0.2823,0.2788,0.2762,0.271,0.3098,0.2382,0.2333,0.2321,0.2331,0.2291,0.2294,0.2297,0.2299,0.2301,0.2324,0.233,0.2361,0.2385,0.2408,0.2422,0.2415,0.2429,0.2458,0.2452,0.2624,0.2576,0.26,0.2489,0.244,0.2403,0.2598,0.2486,0.2491,0.2503,0.2439,0.2399,0.2355,0.2359,0.2363,0.2366,0.2368,0,0.2211,0.225,0.2273,0.2289,0.2253,0.2324,0.2354,0.2279,0.2223,0.2246,0.2246,0.2063,0.198,0.2042,0.1891,0.1945,0.1838,0.1917,0.1718,0.1758,0.1793,0.1686,0.1405,0.1403,0.14,0.1398,0,0,0.215,0.213,0.2151,0.2094,0.2118,0.2031,0.2027,0.1939,0.1904,0.1784,0.1715,0.1784,0.1931,0.1596,0.1588,0.1475,0.1599,0.142,0.2184,0.1985,0.2016,0.2113,0.1995,0,0,0,0,0]},{"header":{"parameterUnit":"m.s-1","parameterCategory":2,"la1":30.2991,"la2":30.254,"lo1":-89.0895,"lo2":-89.0444,"dy":0.0017,"dx":0.0017,"nx":28,"ny":28,"refTime":"2023-10-30T21:00:00:Z","depth":"2","parameterNumber":3,"parameterNumberName":"V-component_of_CURRENTS"},"data":[0,0,0,0,0,0,0,0,0,0,0,0,0,0,0,0,0,0,0,0,0,0,0,0,0,0,0,0,0,0,0,0,0,0,0,0,0,0,0,0,0,0,0,0,0,0,0,0,0,0,0,0,0,0,0,0,0,0,-0.0347,-0.0348,0,-0.047,-0.0471,-0.0473,-0.0572,-0.0574,-0.0575,-0.0576,-0.0648,-0.0649,-0.065,0,0,0,0,0,0,0,0,0,0,0,0,0,-0.0382,-0.0379,-0.0347,-0.0348,-0.035,-0.047,-0.0471,-0.0473,-0.0572,-0.0574,-0.0575,-0.0577,-0.0648,-0.0649,-0.065,0,0,0,0,0,0,0,0,0,0,0,0,0,-0.0419,-0.0378,-0.0346,-0.0416,-0.0423,-0.047,-0.0472,-0.0473,-0.0572,-0.0574,-0.0576,-0.0577,-0.0648,-0.0649,-0.065,-0.0621,0,0,-0.0654,-0.0654,0,0,0,0,0,0,0,0,-0.0417,-0.0417,-0.0404,-0.0411,-0.042,-0.051,-0.0511,-0.0521,-0.0571,-0.0513,-0.0576,-0.0578,-0.0597,-0.0603,-0.0619,-0.0624,-0.0627,-0.0654,-0.0654,-0.0655,-0.0655,0,0,0,0,0,0,0,-0.0414,-0.0414,-0.0393,-0.0405,-0.0415,-0.0504,-0.051,-0.0514,-0.0541,-0.0518,-0.0526,-0.0543,-0.0601,-0.0618,-0.0622,-0.0628,-0.0654,-0.0655,-0.0655,-0.0656,-0.0671,-0.0671,0,0,0,0,0,0,-0.039,-0.041,-0.039,-0.0397,-0.0425,-0.0501,-0.0508,-0.0477,-0.0542,-0.0555,-0.0541,-0.0547,-0.0615,-0.062,-0.0625,-0.0641,-0.0655,-0.0656,-0.0657,-0.0671,-0.0671,-0.067,0,0,0,0,0,0,-0.039,-0.0385,-0.0385,-0.0412,-0.0418,-0.0498,-0.0464,-0.0479,-0.0505,-0.0561,-0.0572,-0.0553,-0.0617,-0.0623,-0.065,-0.0643,-0.0657,-0.0658,-0.0672,-0.0671,-0.0671,-0.0644,0,0,0,0,0,0,-0.0389,-0.0383,-0.0369,-0.0408,-0.0416,-0.0416,-0.0463,-0.048,-0.0513,-0.0522,-0.0574,-0.0583,-0.0619,-0.0648,-0.0651,-0.0645,-0.0659,-0.0672,-0.0671,-0.0671,-0.0645,-0.0643,-0.064,0,0,0,0,0,-0.0389,-0.0376,-0.0365,-0.0365,-0.0385,-0.0416,-0.0428,-0.0492,-0.0511,-0.0521,-0.0565,-0.0582,-0.0646,-0.0649,-0.0652,-0.0647,-0.0672,-0.0671,-0.0671,-0.0646,-0.0643,-0.0641,0,0,0,0,0,0,-0.0373,-0.0386,-0.0376,-0.036,-0.038,-0.0434,-0.0453,-0.0482,-0.0524,-0.0525,-0.0579,-0.059,-0.0613,-0.0626,-0.0628,-0.0649,-0.066,-0.066,-0.064,-0.0637,-0.0635,-0.0613,-0.066,0,0,0,0,0,-0.0356,-0.035,-0.0366,-0.0347,-0.0349,-0.0389,-0.0413,-0.0442,-0.048,-0.0501,-0.0542,-0.0577,-0.0609,-0.0622,-0.0649,-0.0651,-0.0656,-0.0649,-0.0646,-0.0644,-0.0629,-0.0632,-0.0628,-0.0668,-0.0668,-0.0668,0,0,-0.0334,-0.0348,-0.0337,-0.0345,-0.0357,-0.0371,-0.0407,-0.0424,-0.0445,-0.0496,-0.0535,-0.0568,-0.0608,-0.0631,-0.0639,-0.0643,-0.0638,-0.0643,-0.0641,-0.0627,-0.0631,-0.0627,-0.0624,-0.0668,-0.0668,-0.0668,0,0,-0.0321,-0.0294,-0.0298,-0.0309,-0.0332,-0.0356,-0.0354,-0.0392,-0.0417,-0.0449,-0.0496,-0.0523,-0.0571,-0.0602,-0.0623,-0.0613,-0.0627,-0.062,-0.0587,-0.0591,-0.0588,-0.0585,-0.0595,-0.0593,-0.0615,-0.0615,-0.0615,0,-0.0327,-0.0292,-0.0305,-0.0317,-0.0325,-0.0342,-0.0342,-0.0369,-0.0419,-0.0425,-0.0457,-0.0521,-0.0558,-0.058,-0.0592,-0.0607,-0.0613,-0.0598,-0.0588,-0.0585,-0.0582,-0.0593,-0.0591,-0.0614,-0.0614,-0.0614,-0.0614,0,-0.0287,-0.029,-0.0287,-0.03,-0.0311,-0.0305,-0.0329,-0.034,-0.0366,-0.0396,-0.042,-0.0474,-0.0507,-0.0528,-0.0565,-0.0561,-0.0574,-0.0587,-0.0594,-0.0576,-0.059,-0.0588,-0.0612,-0.0613,-0.0613,-0.0613,0,0,-0.0265,-0.0269,-0.0271,-0.0269,-0.0292,-0.029,-0.0306,-0.0318,-0.0309,-0.0363,-0.0361,-0.0431,-0.0442,-0.0465,-0.0501,-0.0513,-0.0517,-0.054,-0.0541,-0.0547,-0.0528,-0.0562,-0.0564,-0.053,-0.0529,-0.0528,-0.0548,0,-0.0247,-0.0251,-0.0259,-0.0258,-0.0256,-0.0266,-0.0273,-0.0283,-0.0302,-0.0305,-0.0346,-0.0362,-0.0423,-0.0426,-0.045,-0.0496,-0.051,-0.051,-0.0546,-0.0546,-0.0576,-0.0562,-0.0483,-0.0496,-0.0547,-0.0547,-0.0547,0,-0.0225,-0.0229,-0.0216,-0.0223,-0.0214,-0.0213,-0.0189,-0.0198,-0.0207,-0.0216,-0.0235,-0.0269,-0.0299,-0.0346,-0.0411,-0.0408,-0.046,-0.0502,-0.0504,-0.0538,-0.0577,-0.052,-0.0491,-0.0544,-0.0545,-0.0545,-0.0545,0,-0.0199,-0.0213,-0.0192,-0.0188,-0.0189,-0.0172,-0.0164,-0.0165,-0.014,-0.0148,-0.0126,-0.018,-0.0185,-0.026,-0.0363,-0.038,-0.0429,-0.0462,-0.0542,-0.0545,-0.0485,-0.0485,-0.0496,-0.0496,-0.0496,-0.0496,-0.0496,0,-0.0192,-0.0181,-0.0168,-0.0151,-0.0101,-0.0121,-0.0064,-0.0066,-0.0042,0.0009,-0.0064,-0.0035,-0.0162,-0.0214,-0.032,-0.0425,-0.0396,-0.0527,-0.0548,-0.0477,-0.0475,-0.0521,-0.0524,-0.0496,-0.0496,-0.0496,-0.0496,0,-0.0171,-0.0172,-0.0144,-0.0112,-0.0093,-0.0049,0.0013,0.0058,0.0063,0.0129,0.0135,0.0087,0.0013,-0.0124,-0.0242,-0.0357,-0.0462,-0.0506,-0.0423,-0.0435,-0.0588,-0.0589,-0.0594,-0.0595,-0.0596,-0.0597,-0.0598,0,-0.015,-0.0138,-0.0086,-0.0046,-0.0023,0.004,0.0092,0.0114,0.0168,0.0211,0.0256,0.0199,0.0179,-0.0023,-0.0206,-0.0388,-0.0454,-0.048,-0.0509,-0.0576,-0.0596,-0.0595,-0.0595,-0.0419,-0.0418,-0.0417,-0.0417,0,-0.0095,-0.008,-0.0038,0.0037,0.0099,0.0169,0.0242,0.0304,0.0343,0.0397,0.0446,0.0431,0.026,0.0103,-0.0162,-0.0287,-0.0451,-0.0476,-0.0536,-0.042,-0.0416,-0.0435,-0.0438,-0.0411,-0.0411,-0.0412,-0.0412,-0.0412,-0.0027,0.0012,0.0063,0.0135,0.0203,0.0289,0.0346,0.0464,0.0563,0.0668,0.0611,0.0616,0.0405,0.0111,-0.0121,-0.0376,-0.0391,-0.0496,-0.0495,-0.0495,-0.0486,-0.0485,-0.049,-0.0491,-0.0492,-0.0493,-0.0494,0,0.0085,0.0086,0.0158,0.0236,0.0339,0.0327,0.0439,0.055,0.0704,0.0782,0.0831,0.0678,0.0482,0.0215,-0.0124,-0.0362,-0.0357,-0.0463,-0.0395,-0.0398,-0.0402,-0.0387,-0.0366,-0.0367,-0.0367,-0.0368,0,0,0.0139,0.022,0.0241,0.0372,0.0397,0.0542,0.0597,0.0757,0.086,0.0981,0.0971,0.0916,0.0578,0.0349,0.0047,-0.0164,-0.0237,-0.0206,-0.0277,-0.0164,-0.0165,-0.0383,-0.0359,0,0,0,0,0]}],[{"header":{"parameterUnit":"m.s-1","parameterCategory":2,"la1":30.2991,"la2":30.254,"lo1":-89.0895,"lo2":-89.0444,"dy":0.0017,"dx":0.0017,"nx":28,"ny":28,"refTime":"2023-10-30T21:00:00:Z","depth":"4","parameterNumber":2,"parameterNumberName":"U-component_of_CURRENTS"},"data":[0,0,0,0,0,0,0,0,0,0,0,0,0,0,0,0,0,0,0,0,0,0,0,0,0,0,0,0,0,0,0,0,0,0,0,0,0,0,0,0,0,0,0,0,0,0,0,0,0,0,0,0,0,0,0,0,0,0,0.1312,0.1312,0,0.135,0.1351,0.1352,0.1393,0.1394,0.1394,0.1394,0.146,0.1461,0.1463,0,0,0,0,0,0,0,0,0,0,0,0,0,0.1224,0.1226,0.1312,0.1312,0.1313,0.135,0.1351,0.1352,0.1393,0.1394,0.1394,0.1395,0.1459,0.1461,0.1463,0,0,0,0,0,0,0,0,0,0,0,0,0,0.1264,0.1227,0.1312,0.1337,0.1339,0.135,0.1351,0.1352,0.1393,0.1394,0.1394,0.1395,0.1459,0.1461,0.1463,0.1463,0,0,0.1469,0.147,0,0,0,0,0,0,0,0,0.1262,0.1268,0.1333,0.1335,0.1338,0.1366,0.1344,0.139,0.1393,0.1374,0.1394,0.1395,0.1429,0.1434,0.1442,0.1466,0.1469,0.1469,0.1471,0.1471,0.1472,0,0,0,0,0,0,0,0.1259,0.1266,0.1329,0.1333,0.1336,0.1328,0.1335,0.1353,0.14,0.1376,0.1379,0.138,0.1431,0.144,0.1444,0.147,0.1469,0.1471,0.1472,0.1473,0.1576,0.1577,0,0,0,0,0,0,0.1253,0.1264,0.1328,0.133,0.1299,0.1329,0.1337,0.1358,0.1399,0.1405,0.1379,0.1382,0.1436,0.1441,0.1446,0.1518,0.1471,0.1473,0.1474,0.1574,0.1576,0.1578,0,0,0,0,0,0,0.1252,0.1259,0.1326,0.1295,0.1303,0.133,0.1353,0.1358,0.1397,0.1401,0.1408,0.1416,0.1437,0.1443,0.1488,0.1519,0.1474,0.1476,0.1572,0.1575,0.1577,0.1618,0,0,0,0,0,0,0.1249,0.1259,0.129,0.1295,0.1304,0.1351,0.1352,0.1358,0.1394,0.1399,0.1434,0.1439,0.1438,0.1485,0.149,0.1521,0.1478,0.157,0.1573,0.1576,0.1614,0.1621,0.1627,0,0,0,0,0,0.1246,0.1266,0.1292,0.1301,0.1341,0.1352,0.1357,0.1378,0.1396,0.1416,0.1443,0.144,0.1506,0.1488,0.1493,0.1525,0.1569,0.1572,0.1576,0.1612,0.162,0.1627,0,0,0,0,0,0,0.1239,0.1272,0.1301,0.1332,0.1355,0.1359,0.1378,0.1397,0.1434,0.1452,0.1457,0.1464,0.1516,0.1516,0.1495,0.1564,0.1538,0.1543,0.1564,0.1571,0.1577,0.158,0.1479,0,0,0,0,0,0.1255,0.1292,0.1311,0.1345,0.1355,0.1378,0.1393,0.1414,0.1435,0.1454,0.1479,0.1506,0.1529,0.1547,0.1569,0.1604,0.1611,0.163,0.1636,0.1641,0.1649,0.1689,0.1699,0.1589,0.1589,0.1589,0,0,0.1265,0.1288,0.1312,0.1349,0.1368,0.1381,0.139,0.1423,0.1448,0.1455,0.151,0.1534,0.1545,0.1586,0.1609,0.1593,0.1676,0.1646,0.165,0.1655,0.1693,0.1704,0.1713,0.1591,0.1591,0.159,0,0,0.1272,0.1322,0.1344,0.1364,0.14,0.141,0.1427,0.1458,0.149,0.1536,0.1551,0.1596,0.1629,0.1646,0.1654,0.1708,0.171,0.1722,0.1754,0.1792,0.1802,0.181,0.1829,0.1838,0.1722,0.1722,0.1722,0,0.1282,0.132,0.1351,0.1366,0.1387,0.1424,0.1444,0.1471,0.1521,0.1554,0.1561,0.1639,0.1653,0.1698,0.1719,0.1722,0.1741,0.1721,0.18,0.1808,0.1816,0.1833,0.1843,0.1724,0.1724,0.1724,0.1724,0,0.1299,0.1334,0.1343,0.1384,0.1409,0.1437,0.1469,0.1517,0.156,0.159,0.1667,0.1694,0.174,0.1753,0.1751,0.1819,0.1814,0.1804,0.1778,0.1829,0.1844,0.1854,0.1728,0.1727,0.1726,0.1726,0,0,0.1297,0.1348,0.1356,0.138,0.143,0.1446,0.1496,0.1548,0.1597,0.1653,0.1714,0.1762,0.18,0.1813,0.1832,0.1865,0.1933,0.1865,0.1866,0.1879,0.2017,0.1886,0.1884,0.1945,0.1947,0.1949,0.2003,0,0.1304,0.1339,0.1367,0.1406,0.1421,0.1475,0.1516,0.1576,0.1634,0.1702,0.1751,0.1815,0.1814,0.1858,0.1892,0.1931,0.1962,0.1919,0.197,0.1971,0.1845,0.1891,0.1955,0.201,0.2013,0.2014,0.2015,0,0.1302,0.1331,0.1373,0.1426,0.1441,0.1477,0.1568,0.1613,0.1704,0.1757,0.1829,0.1871,0.1944,0.1933,0.2017,0.1995,0.2015,0.203,0.2033,0.1903,0.1858,0.1951,0.2033,0.2031,0.203,0.2029,0.2028,0,0.1277,0.1326,0.137,0.1391,0.1457,0.1504,0.1552,0.1642,0.1699,0.1808,0.1864,0.1943,0.2005,0.2044,0.2082,0.2066,0.2159,0.2134,0.2029,0.202,0.2103,0.2093,0.219,0.219,0.219,0.2189,0.2189,0,0.1256,0.1287,0.137,0.1393,0.1456,0.1508,0.1592,0.1655,0.1755,0.1819,0.1902,0.1958,0.2043,0.2099,0.2111,0.2098,0.2185,0.2043,0.2029,0.2118,0.211,0.2109,0.2099,0.2191,0.2191,0.2191,0.219,0,0.1208,0.1265,0.1314,0.1407,0.1443,0.1494,0.1607,0.166,0.1767,0.1856,0.1897,0.2002,0.2065,0.2121,0.2189,0.2127,0.2131,0.2105,0.2199,0.219,0.1956,0.1948,0.1983,0.1979,0.1976,0.1973,0.1971,0,0.1186,0.1209,0.1322,0.1363,0.1412,0.1497,0.1551,0.1661,0.1712,0.1859,0.1886,0.1995,0.2048,0.2028,0.2097,0.2104,0.2081,0.2064,0.2,0.1954,0.1938,0.1935,0.1932,0.1965,0.1964,0.1963,0.1962,0,0.1138,0.1197,0.1244,0.1328,0.1395,0.1457,0.1541,0.1565,0.1685,0.1799,0.1828,0.1854,0.1917,0.1944,0.197,0.1971,0.2061,0.2027,0.2033,0.1973,0.1932,0.1919,0.192,0.195,0.1952,0.1953,0.1954,0,0.1111,0.1135,0.1209,0.1269,0.1349,0.1382,0.1439,0.1484,0.1542,0.1687,0.1694,0.1797,0.1897,0.1877,0.19,0.1891,0.1855,0.1783,0.1801,0.1815,0.1734,0.1655,0.1583,0,0,0,0,0,0.1066,0.1081,0.1138,0.1193,0.1267,0.131,0.141,0.1465,0.1575,0.1552,0.1615,0.1658,0.1683,0.1734,0.1691,0.1834,0.1871,0.1776,0.1799,0.1884,0.1898,0.1817,0,0,0,0,0,0,0.1036,0.1083,0.1104,0.1111,0.1131,0.1197,0.1253,0.1334,0.1321,0.144,0.1459,0.1553,0.1602,0.1686,0.1655,0.1673,0.1652,0.1843,0.1839,0.1876,0.1889,0.19,0.1821,0,0,0,0,0]},{"header":{"parameterUnit":"m.s-1","parameterCategory":2,"la1":30.2991,"la2":30.254,"lo1":-89.0895,"lo2":-89.0444,"dy":0.0017,"dx":0.0017,"nx":28,"ny":28,"refTime":"2023-10-30T21:00:00:Z","depth":"4","parameterNumber":3,"parameterNumberName":"V-component_of_CURRENTS"},"data":[0,0,0,0,0,0,0,0,0,0,0,0,0,0,0,0,0,0,0,0,0,0,0,0,0,0,0,0,0,0,0,0,0,0,0,0,0,0,0,0,0,0,0,0,0,0,0,0,0,0,0,0,0,0,0,0,0,0,0.026,0.026,0,0.0229,0.0228,0.0227,0.0193,0.0194,0.0194,0.0194,0.019,0.019,0.0189,0,0,0,0,0,0,0,0,0,0,0,0,0,0.0305,0.0304,0.026,0.026,0.0261,0.0229,0.0228,0.0227,0.0193,0.0194,0.0194,0.0195,0.019,0.019,0.0189,0,0,0,0,0,0,0,0,0,0,0,0,0,0.0272,0.0303,0.026,0.0247,0.0246,0.0229,0.0228,0.0226,0.0193,0.0194,0.0194,0.0195,0.019,0.019,0.0189,0.0173,0,0,0.0187,0.0187,0,0,0,0,0,0,0,0,0.0274,0.0269,0.0249,0.0248,0.0247,0.0224,0.0243,0.0213,0.0193,0.0203,0.0194,0.0195,0.021,0.0207,0.0187,0.0173,0.0173,0.0187,0.0186,0.0186,0.0186,0,0,0,0,0,0,0,0.0276,0.0271,0.0238,0.0249,0.0249,0.0249,0.0244,0.0236,0.0197,0.0203,0.0202,0.0214,0.0208,0.0187,0.0186,0.0173,0.0187,0.0186,0.0186,0.0186,0.0166,0.0166,0,0,0,0,0,0,0.0297,0.0272,0.0239,0.0238,0.0273,0.0249,0.0242,0.0223,0.0196,0.0195,0.0213,0.0213,0.0188,0.0187,0.0186,0.0198,0.0186,0.0186,0.0185,0.0166,0.0166,0.0166,0,0,0,0,0,0,0.0297,0.0293,0.0241,0.0264,0.0259,0.0248,0.0226,0.0222,0.0208,0.0206,0.0204,0.0206,0.0188,0.0187,0.0189,0.0197,0.0185,0.0185,0.0166,0.0166,0.0166,0.0202,0,0,0,0,0,0,0.0298,0.0292,0.0288,0.0264,0.0259,0.0239,0.0227,0.0222,0.0219,0.0217,0.0199,0.0198,0.0189,0.0191,0.0189,0.0196,0.0184,0.0166,0.0166,0.0166,0.0201,0.0203,0.0205,0,0,0,0,0,0.0299,0.0305,0.0287,0.0284,0.0251,0.024,0.0235,0.0225,0.0218,0.0212,0.0204,0.0199,0.0188,0.019,0.0188,0.0195,0.0166,0.0166,0.0166,0.02,0.0202,0.0205,0,0,0,0,0,0,0.0327,0.0302,0.0282,0.0278,0.0262,0.0238,0.0242,0.0228,0.0211,0.0213,0.02,0.0199,0.0202,0.0191,0.0194,0.0187,0.0175,0.0175,0.0201,0.0204,0.0206,0.0212,0.0183,0,0,0,0,0,0.033,0.0316,0.0295,0.0288,0.0284,0.0257,0.0254,0.0241,0.0229,0.0221,0.021,0.02,0.0195,0.0196,0.0186,0.0185,0.0158,0.0186,0.0188,0.019,0.0192,0.015,0.0149,0.0165,0.0165,0.0165,0,0,0.0337,0.0324,0.0315,0.0293,0.0276,0.0281,0.0254,0.0249,0.0254,0.0226,0.0226,0.0207,0.0196,0.0195,0.0195,0.019,0.0171,0.019,0.0191,0.0192,0.015,0.0148,0.0147,0.0165,0.0165,0.0165,0,0,0.0363,0.0331,0.0337,0.0327,0.0316,0.03,0.0302,0.0276,0.0265,0.0261,0.0243,0.0227,0.0221,0.0207,0.0204,0.021,0.0182,0.0207,0.0225,0.0185,0.0184,0.0182,0.0148,0.0143,0.021,0.021,0.021,0,0.0389,0.0371,0.0339,0.0351,0.0354,0.0314,0.0329,0.0312,0.029,0.0283,0.0272,0.024,0.0227,0.0225,0.0224,0.0215,0.0188,0.0221,0.0188,0.0186,0.0183,0.0149,0.0143,0.0212,0.0211,0.0211,0.0211,0,0.0401,0.0408,0.0414,0.0406,0.0404,0.0406,0.0389,0.0377,0.0358,0.0337,0.0319,0.0285,0.0266,0.0256,0.0245,0.0223,0.0208,0.0195,0.0184,0.0184,0.0147,0.014,0.0214,0.0213,0.0213,0.0212,0,0,0.0431,0.0425,0.0432,0.0444,0.0431,0.0433,0.0441,0.0429,0.0429,0.0393,0.0385,0.0357,0.0318,0.031,0.028,0.0242,0.0198,0.0214,0.0211,0.0184,0.011,0.0105,0.0097,0.0177,0.0176,0.0176,0.0092,0,0.0459,0.0488,0.0475,0.0512,0.053,0.0504,0.0514,0.0499,0.0471,0.045,0.0401,0.038,0.0347,0.0328,0.0287,0.0218,0.0181,0.0222,0.011,0.0107,0.0106,0.0089,0.0172,0.0087,0.0085,0.0084,0.0083,0,0.0488,0.0501,0.0536,0.0565,0.0569,0.0586,0.0581,0.0583,0.0546,0.0521,0.0481,0.0432,0.0377,0.0343,0.023,0.0257,0.0189,0.0133,0.0128,0.0107,0.009,0.0085,0.007,0.0071,0.0072,0.0073,0.0073,0,0.0523,0.0559,0.0584,0.059,0.0606,0.0623,0.0628,0.0607,0.0604,0.056,0.0539,0.0466,0.0421,0.0329,0.0213,0.0216,0.0081,0.0071,0.0006,0.0005,0.0019,0.0022,-0.0009,-0.0009,-0.0008,-0.0008,-0.0008,0,0.056,0.0594,0.0606,0.0622,0.0658,0.0662,0.0686,0.0675,0.0655,0.0646,0.0576,0.0541,0.0411,0.0317,0.0219,0.009,0.0085,0.0004,-0.002,0.0036,0.0042,0.0014,0.0018,-0.0011,-0.0011,-0.001,-0.0009,0,0.0602,0.0606,0.0649,0.067,0.0681,0.0709,0.0731,0.0738,0.0716,0.07,0.0686,0.0586,0.0462,0.0332,0.0171,0.0098,-0.0023,-0.0065,0.0007,-0.001,-0.0074,-0.0067,-0.0149,-0.015,-0.015,-0.0151,-0.0152,0,0.0617,0.0643,0.0681,0.07,0.0714,0.0751,0.0769,0.077,0.077,0.0724,0.0711,0.0596,0.0516,0.0291,0.0156,-0.003,-0.0054,-0.0113,-0.0097,-0.0075,-0.009,-0.0082,-0.0074,-0.0153,-0.0153,-0.0153,-0.0153,0,0.0648,0.0665,0.0687,0.0726,0.0759,0.0789,0.0816,0.0822,0.0811,0.0796,0.0719,0.0599,0.0458,0.0286,0.014,0.0009,-0.0074,-0.0121,-0.012,-0.0106,-0.0081,-0.0093,-0.0085,-0.0156,-0.0156,-0.0155,-0.0155,0,0.0667,0.0685,0.0711,0.0744,0.0783,0.0807,0.0825,0.0818,0.0818,0.077,0.0745,0.0597,0.0511,0.0306,0.0173,0.004,0.0007,-0.0029,-0.0033,-0.0032,0.0028,0.0079,0.0028,0,0,0,0,0,0.0679,0.0692,0.0721,0.0753,0.0791,0.0817,0.084,0.0848,0.0845,0.0795,0.0771,0.0641,0.0429,0.0335,0.02,0.0155,-0.0016,-0.0007,-0.0059,-0.0171,-0.0168,-0.0118,0,0,0,0,0,0,0.0683,0.0714,0.0718,0.0751,0.0778,0.0819,0.0839,0.0839,0.0806,0.0785,0.0671,0.0618,0.0409,0.0511,0.0202,0.0161,0.0111,-0.0104,-0.0107,-0.0173,-0.017,-0.0168,-0.0115,0,0,0,0,0]}]]